Regional Weather Roundup
Issued by NWS Little Rock, AR

Home | Current Version | Previous Version | Graphics & Text | Print | Product List | Glossary On
Versions: 1 2 3 4 5 6 7 8 9 10 11 12 13 14 15 16 17 18 19 20 21 22 23 24 25 26 27
000
ASUS44 KLZK 250405
RWRLZK

WEATHER ROUNDUP FOR ARKANSAS
NATIONAL WEATHER SERVICE LITTLE ROCK AR
1100 PM CDT FRI OCT 24 2014

NOTE: "FAIR" INDICATES FEW OR NO CLOUDS BELOW 12,000 FEET WITH NO
SIGNIFICANT WEATHER AND/OR OBSTRUCTIONS TO VISIBILITY.

ARZ001-003-010-029-250500-
NORTHWEST ARKANSAS

CITY           SKY/WX    TMP DP  RH WIND       PRES   REMARKS
FAYETTEVILLE   CLEAR     58  57  97 CALM      30.11R
FORT SMITH     CLEAR     63  59  87 CALM      30.08F
HARRISON       CLEAR     61  58  90 S3        30.10S
BENTONVILLE    CLEAR     61  55  82 S5        30.10S
ROGERS         CLEAR     62  57  83 S8        30.11R
SILOAM SPGS    CLEAR     61  54  77 S3        30.11R
HIGHFILL       CLEAR     60  58  92 S3        30.09R
$$

ARZ004-005-016-250500-
NORTH CENTRAL ARKANSAS

CITY           SKY/WX    TMP DP  RH WIND       PRES   REMARKS
BATESVILLE     PTCLDY    63  54  72 CALM      30.09S
FLIPPIN        CLEAR     61  55  82 SW5       30.08S
MTN HOME       CLEAR     60  58  92 S5        30.07S
$$

ARZ040-041-250500-
WEST CENTRAL ARKANSAS

CITY           SKY/WX    TMP DP  RH WIND       PRES   REMARKS
MENA           CLEAR     59  59 100 CALM      30.13S
MOUNT IDA      CLEAR     59  57  93 CALM      30.09F FOG
$$

ARZ009-017-025-026-028-250500-
NORTHEAST ARKANSAS

CITY           SKY/WX    TMP DP  RH WIND       PRES   REMARKS
CORNING        FAIR      59  57  94 SW6       30.07F
JONESBORO      PTCLDY    64  56  75 W6        30.08S
NEWPORT        PTCLDY    58  55  89 S3        30.10S
WALNUT RIDGE   PTCLDY    61  50  67 SW7       30.07F
BLYTHEVILLE    PTCLDY    58  55  90 S6        30.09R
$$

ARZ022-023-033-042-044-250500-
CENTRAL ARKANSAS

CITY           SKY/WX    TMP DP  RH WIND       PRES   REMARKS
LITTLE ROCK    PTCLDY    61  55  81 SW5       30.11S
N LITTLE ROCK  PTCLDY    62  58  84 SW5       30.11S
JACKSONVILLE   CLEAR     56  54  92 CALM      30.11R
SEARCY         CLEAR     56  55  97 CALM      30.11S
HOT SPRINGS    CLEAR     60  58  92 CALM      30.12S
RUSSELLVILLE   CLEAR     60  58  92 CALM      30.09R
$$

ARZ036-250500-
EAST ARKANSAS

CITY           SKY/WX    TMP DP  RH WIND       PRES   REMARKS
WEST MEMPHIS   PTCLDY    54  53  97 CALM      30.08S
$$

ARZ050-053-066-070-073-250500-
SOUTHWEST ARKANSAS

CITY           SKY/WX    TMP DP  RH WIND       PRES   REMARKS
ARKADELPHIA    FAIR      56  56 100 CALM      30.12S FOG
CAMDEN         CLEAR     54  50  87 CALM      30.13R FOG
TEXARKANA      CLEAR     61  58  90 SW3       30.12S
EL DORADO      CLEAR     54  53  97 CALM      30.13R
DE QUEEN       FOG       57  57 100 CALM      30.10S VSB 1/2
$$

ARZ056-057-069-250500-
SOUTHEAST ARKANSAS

CITY           SKY/WX    TMP DP  RH WIND       PRES   REMARKS
PINE BLUFF     CLEAR     57  54  89 CALM      30.11S
STUTTGART      CLEAR     61  54  77 S7        30.11S
MONTICELLO     CLEAR     56  53  90 CALM      30.12S

$$





USA.gov is the U.S. government's official web portal to all federal, state and local government web resources and services.